weather.gov     
National Weather Service

Other Surface Observations
NWS Homepage
This page is being discontinued on March 12, 2014.
The same data is available at this site. Please update your bookmarks.
Thank you, and we apologize for the inconvenience.
Please send an email to SR-SRH.Webmaster@noaa.gov with any concerns.


Current Version
Previous Version:    01  02  03  04  05  06  07  08  09  10  11  12  13  14  15  16  17  18  19  20  21  22  23  24  25  26  27  28  29  30  
   31  32  33  34  35  36  37  38  39  40  41  42  43  44  45  46  47  48  49  50  51  52  53  54  55  56  57  58  59  60  
[Printable]
911
SXUS52 KCHS 281425
OSOCHS

MARINE OBSERVATIONS
NATIONAL WEATHER SERVICE CHARLESTON SC
1000 AM EDT MON JUL 28 2014

...DOWNTOWN CHARLESTON AND HARBOR...

CITY           SKY/WX    TMP DP  RH WIND       PRES   REMARKS
WATERFRONT PRK   N/A     88 N/A N/A SW10G16     N/A
FORT JOHNSON   NOT AVBL

...LAKE MOULTRIE...

CITY           SKY/WX    TMP DP  RH WIND       PRES   REMARKS
PINOPOLIS        N/A     84  75  74 SW9       29.80R HX  92

...LAKE AND SUPPLEMENTAL COASTAL OBSERVATIONS...

STATION/POSITION TIME  TEMP    WIND        PRES    WAVE   SWELL
                       AIR SEA DIR/SP/G            HT/PER HT/PER/DIR
                 (UTC) (F)     (DEG/KT/KT) (MB)    (FT/S) (FT/S/D)
FORT PULASKI     1400   86     240/  9/ 12 1013.4F
SAPELO ISLAND    1400   85     250/ 11     1015.0S
UPR LAKE MARION  NOT AVBL
WINYAH BAY       1400   84     250/  9     1010.0S
LAKE MURRAY      1400   82     260/  9/ 14 1010.5S
ACE BASIN NERRS  1400   85     250/  3     1012.0S


...C-MAN AND BUOY OBSERVATIONS...

STATION/POSITION TIME  TEMP    WIND        PRES    WAVE   SWELL
                       AIR SEA DIR/SP/G            HT/PER HT/PER/DIR
                 (UTC) (F)     (DEG/KT/KT) (MB)    (FT/S) (FT/S/D)
BUOY 41004       1400   84 83  240/ 17/ 19 1011.0F   4/ 6   2/10
BUOY 41008       1400   83 84  260/ 16/ 17 1013.7F   3/ 5   2/120/10
FOLLY BEACH CMAN 1400   87     240/  9/ 14 1012.2F
CAPERS NS BUOY   1300   84     260/ 16/ 21   N/A
FRIPP NS BUOY    NOT AVBL
5E ST. MARYS GA  1400      84                N/A     2/ 3
FRYING PAN BUOY  NOT AVBL
BUOY 41025       1400          VRB 17/ 21  1008.4R   6/ 7   2/150/ 8
CAPE LOOKOUT NC  1400   83     240/ 12/ 16 1009.2R
BUOY 41002       1256   82 81  240/ 16/ 19 1015.1R   6/ 6   2/160/ 9
BUOY 41010       1400   84 84  270/ 16/ 17 1017.3R   4/ 5   2/140/ 9
BUOY 41012       NOT AVBL
ST AUGUSTINE FL  1400   85     260/  8/ 11 1016.9F


$$




U.S. Dept. of Commerce
NOAA National Weather Service
1325 East West Highway
Silver Spring, MD 20910
E-mail: w-nws.webmaster@noaa.gov
Page last modified: May 16, 2007
NATIONAL WEATHER SERVICE: for Safety, for Work, for Fun - FOR LIFE